www.pogodaiklimat.ru
ПОГОДА в Изберге

Архив погоды в Изберге (Дагестан, Россия)

Время
(UTC), дата
06 6.06
09 6.06
12 6.06
15 6.06
18 6.06
21 6.06
00 7.06
03 7.06
06 7.06
09 7.06
12 7.06
15 7.06
18 7.06
21 7.06
00 8.06
03 8.06
06 8.06
09 8.06
12 8.06
15 8.06
18 8.06
21 8.06
00 9.06
03 9.06
06 9.06
09 9.06
12 9.06
15 9.06
18 9.06
21 9.06
00 10.06
03 10.06
09 10.06
12 10.06
15 10.06
18 10.06
21 10.06
00 11.06
03 11.06
06 11.06
09 11.06
15 11.06
09 12.06
12 12.06
15 12.06
18 12.06
21 12.06
00 13.06
03 13.06
Ветер
(напр.,м/с)
Видим. Явления Облачность Т
(С)
Тd
(С)
f
(%)
Тe
(С)
Тes
(С)
Комфортность P
(гПа)
Po
(гПа)
Тmin
(С)
Tmax
(С)
R
(мм)
R24
(мм)
S
(см)
СВ 1 20 км 6/0
[Ci fib]
+26.0 +16.3 55 +29 +43 душно 1010.9 1012.7
В 3 20 км 3/1 600 м
[Cu hum Ac lent]
+28.4 +21.2 65 +36 +48 очень душно 1010.7 1012.5
В 3 20 км 6/3 600 м
[Cu hum Ci fib]
+26.8 +21.4 72 +34 +40 очень душно 1010.0 1011.8
ЮВ 2 20 км местами туман поземный 3/3 600 м +27.0 +21.9 74 +35 +36 очень душно 1009.0 1010.8 +30.4
ЮЗ 2 20 км 8/3 600 м
[Cu hum Ac trans Ci fib]
+25.0 +16.9 61 +29 +29 душно 1008.7 1010.6
З 4 20 км 6/3 600 м
[Cu hum Ac trans]
+24.8 +15.6 57 +28 +28 жарко 1008.7 1010.6
З 3 70 км 6/1 600 м
[Cu hum Ac trans]
+24.2 +16.4 62 +28 +28 душно 1008.1 1010.0
СЗ 2 20 км 4/3 600 м
[Cu hum Ac trans Ci fib]
+26.8 +16.5 53 +30 +32 душно 1009.4 1011.2 +23.5
С 9-14 {15} 20 км 3/1 600 м
[Cu hum Ci fib]
+30.0 +16.3 44 +33 +34 душно 1010.3 1012.1
С 8-12 {14} 20 км 4/1 600 м
[Cu hum Ci fib]
+27.1 +18.0 58 +32 +35 очень душно 1010.9 1012.7
С 5 {12} 20 км 8/3 600 м
[Cu hum Ac trans Ci fib]
+27.2 +18.4 59 +32 +35 очень душно 1010.5 1012.3
СЗ 1 20 км 10/10 600 м
[Cb calv]
+28.8 +16.3 47 +32 +32 душно 1010.6 1012.4 +32.4
С 5 20 км в посл. час ливневой дождь 10/10 600 м
[Cb calv]
+24.2 +20.0 77 +30 +30 очень душно 1012.3 1014.2
З 2 20 км в посл. час гроза {ливн. дождь} 10/10 600 м
[Cb calv]
+22.3 +18.5 79 +28 +28 душно 1012.9 1014.8
СЗ 1 20 км {гроза, ливн. дождь} 9/6 600 м
[Cb calv Ac trans Ci fib]
+23.2 +16.5 66 +28 +28 душно 1011.3 1013.2
штиль 0 50 км 10/6 600 м
[Cu hum Ac trans Ci fib]
+23.7 +19.0 75 +28 +29 душно 1011.7 1013.6 +22.1 1
СВ 2 50 км 9/3 600 м
[Cu hum Ac lent Ci fib]
+26.0 +18.1 62 +31 +36 очень душно 1012.0 1013.8
штиль 0 50 км 9/4 600 м
[Cu hum Ac trans Ci fib]
+28.6 +19.0 56 +34 +43 очень душно 1012.0 1013.8
ЮВ 1 50 км 10/4 600 м
[Cu hum Ac trans Ci fib]
+26.8 +18.9 62 +32 +36 очень душно 1010.8 1012.6
Ю 1 50 км 10/8 600 м
[Cb calv Ac trans]
+24.9 +18.8 69 +30 +30 душно 1009.9 1011.8 +30.1
Ю 2 20 км 10/10 600 м
[Cb calv]
+24.4 +17.5 65 +28 +28 душно 1010.4 1012.3
ЮЗ 1 20 км 10/10 600 м
[Cb calv]
+24.0 +16.1 61 +27 +27 жарко 1009.3 1011.2
штиль 0 20 км 8/6 600 м
[Cu hum Ac trans]
+22.7 +16.7 69 +27 +27 душно 1008.7 1010.6
Ю 1 50 км 8/3 600 м
[Cu hum Ac trans Ci fib]
+23.8 +15.9 61 +27 +28 жарко 1008.6 1010.5 +22.0
ЮВ 1 50 км 8/3 600 м
[Cu hum Ac und Ci fib]
+25.6 +20.1 72 +32 +39 очень душно 1009.1 1010.9
ЮВ 5 50 км 9/1 600 м
[Cu med, cong Ac trans Ci]
+25.2 +19.0 69 +30 +35 душно 1009.1 1010.9
ЮВ 5 20 км 9/3 600 м
[Cu med, cong Ac und Ci]
+24.2 +17.8 67 +28 +31 душно 1009.0 1010.8
В 5 20 км 10/4 600 м
[Cu hum Ac trans Ci]
+23.3 +18.9 76 +30 +30 очень душно 1007.2 1009.1 +28.7
ЮЗ 1 20 км 9/8 600 м
[Cu hum Ac trans]
+22.5 +19.0 81 +28 +28 душно 1009.3 1011.2
штиль 0 20 км 8/6 600 м
[Cu hum Ac trans Ci fib]
+21.4 +17.5 78 +25 +25 комфорт 1009.5 1011.4
С 4 20 км 10/8 600 м
[Cu hum Ac trans]
+22.1 +19.5 85 +28 +28 душно 1011.0 1012.9
штиль 0 20 км 10/6 600 м
[Cu hum Ac trans Ci]
+23.2 +18.1 73 +29 +29 душно 1010.9 1012.8 +21.4
С 8-10 {11} 20 км 4/4 600 м
[Cu med, cong]
+25.8 +18.6 64 +31 +33 очень душно 1011.8 1013.6
С 6 {10} 20 км 9/3 600 м
[Cu hum Ac trans Ci fib]
+25.6 +16.2 56 +29 +31 душно 1011.4 1013.2
С 3 20 км 10/4 600 м
[Cu hum Ac trans Ci fib]
+24.6 +20.6 78 +31 +31 очень душно 1011.2 1013.1 +27.9
С 4 20 км 9/3 600 м
[Cu hum Ac trans Ci fib]
+24.8 +20.5 77 +31 +31 очень душно 1012.6 1014.5
З 2 20 км 9/3 600 м
[Cu hum Ac und]
+23.6 +16.4 64 +27 +27 жарко 1012.0 1013.9
С 3 20 км 10/4 600 м
[Cu hum Ac und]
+24.0 +17.3 66 +28 +28 душно 1010.4 1012.3
С 4 20 км 10/4 600 м
[Cu hum Ac trans Ci fib]
+24.4 +18.1 68 +29 +29 душно 1011.0 1012.9 +23.5
С 8 {10} 20 км 3/3 600 м
[Cu hum Ac trans]
+28.0 +17.2 52 +32 +34 душно 1010.4 1012.2
С 7-12 {14} 20 км 4/3 600 м
[Cu hum Ac trans Ci fib]
+28.9 +18.7 54 +34 +38 очень душно 1009.5 1011.3
С 4 20 км 9/8 600 м
[Cb calv Ac trans]
+27.7 +15.5 47 +31 +31 душно 1008.9 1010.7 +30.4
С 2 {10} 50 км 9/4 600 м
[Cu hum Ac trans Ci fib]
+25.4 +20.2 73 +31 +38 очень душно 1010.1 1011.9
ЮВ 2 20 км 8/4 600 м
[Cu hum Ac trans Ci fib]
+27.2 +21.2 70 +34 +39 очень душно 1009.4 1011.2
штиль 0 20 км 9/6 600 м
[Cu hum Ac trans Ci fib]
+26.2 +20.8 72 +33 +33 очень душно 1009.0 1010.8 +29.1
штиль 0 20 км 10/8 600 м
[Cu hum Ac trans]
+24.8 +20.8 78 +31 +31 очень душно 1009.5 1011.3
СЗ 1 20 км 9/6 600 м
[Cu hum Ac trans]
+24.0 +18.0 69 +28 +28 душно 1009.3 1011.2
З 1 20 км 8/4 600 м
[Cu hum Ac trans]
+24.0 +15.0 57 +27 +27 жарко 1009.7 1011.6
Ю 2 20 км 8/4 600 м
[Cu hum Ac trans Ci fib]
+22.2 +16.1 68 +26 +27 душно 1010.6 1012.5 +22.1
Местоположение метеостанции Изберг (Дагестан, Россия): широта 42.53 долгота 47.92 высота над уровнем моря -16 м.
В архиве по умолчанию представлена погода в Изберге за последнюю неделю. Архивные данные за месяц целиком и за предыдущие месяцы, начиная с января 2011 года, Вы можете получить, выбрав интересующий диапазон дат из раскрывающегося списка и нажав кнопку "Найти!".
*Определитесь, кто Вы:
Внимание! Время в таблицах - всемирное. Для получения местного времени необходимо прибавить поправку, которая равна 3 ч.
Некоторые строки с данными для отдельных станций могут быть выделены курсивом. Это означает, что фактические данные отсутствуют по различным причинам, а приведенные значения являются расчетными модельными данными для данного пункта наблюдений.
Смотрите также архив погоды в соседних городах и на ближайших метеорологических станциях:
Партнеры нашего сайта:      
Пояснения к столбцам:
  • Ветер - указаны скорость ветра в м/с - средняя за 10 мин, порывы в срок и между сроками (в фигурных скобках) и направление, откуда дует ветер: С - северный,
  • СВ - северо-восточный, В - восточный, ЮВ - юго-восточный, Ю - южный, ЮЗ - юго-западный, З - западный, СЗ - северо-западный.
  • Видимость - горизонтальная дальность видимости в метрах или километрах. При видимости от 1 до 10 км при отсутствии осадков обычно наблюдается дымка, при ухудшении видимости до 1 км и менее - туман. В сухую погоду видимость может ухудшаться дымом, пылью или мглою.
  • Явления - указаны атмосферные явления, наблюдавшиеся в срок или в последний час перед сроком; фигурными скобками обозначены явления, наблюдавшиеся между сроками (за 1-3 часа до срока); квадратными скобками обозначены град или гололедные отложения с указанием их диаметра в мм.
  • Облачность - указаны через наклонную черту общая и нижняя облачность в баллах и высота нижней границы облаков в метрах; квадратными скобками обозначены формы облаков: Ci - перистые, Cs - перисто-слоистые, Cc - перисто-кучевые, Ac - высококучевые, As - высокослоистые, Sc - слоисто-кучевые, Ns - слоисто-дождевые, Cu - кучевые, Cb - кучево-дождевые. Подробнее классификацию облаков см. в Атласе облаков (PDF).
  • T - Температура воздуха - температура, измеренная на высоте 2 м над землей.
  • Td - Температура точки росы - температура, при понижении до которой содержащийся в воздухе водяной пар достигнет насыщения.
  • f - Относительная влажность воздуха - влажноcть воздуха, измеренная на высоте 2 м над землей.
  • Te - Эффективная температура - температура, которую ощущает одетый по сезону человек в тени. Характеристика душности погоды. При расчете учитывается влияние влажности воздуха и скорости ветра на теплоощущения человека.
  • Tes - Эффективная температура на солнце - температура, которую ощущает человек, с поправкой на солнечный нагрев. Характеристика знойности погоды. Зависит от высоты солнца над горизонтом, облачности и скорости ветра. Ночью, в пасмурную погоду, а также при ветре 12 м/с и более поправка равна нулю.
  • P - Атмосферное давление - приведенное к уровню моря атмосферное давление.
  • Po - Атмосферное давление - измеренное на уровне метеостанции атмосферное давление.
  • Tmin - Минимальная температура - минимум температуры воздуха на высоте 2 м над землей.
  • Tmax - Максимальная температура - максимум температуры воздуха на высоте 2 м над землей.
  • R - Количество осадков - Количество выпавших осадков за период времени, мм. При наведении курсора мыши на число - период времени, за который выпало указанное количество осадков.
  • R24 - Количество осадков - Количество выпавших осадков за 24 часа, мм.
  • S - Снежный покров - Высота снежного покрова, см. При наведении курсора мыши на число - состояние снежного покрова и степень покрытия местности в баллах.